TV
NORAD ID: 21814
Int'l Code: 1991-084B
Perigee: 36,942.7 km
Apogee: 37,089.8 km
Inclination: 9.1 °
Period: 1,499.0 minutes
Semi major axis: 43387 km
Launch date: December 16, 1991
Source: International Mobile Satellite Organization (INMAR (IM)
Comments: Broadcasting, business services, mobile communications; demand-assigned L-band transponders; spare satellite co-located with Inmarsat 3s.
Two Line Element Set (TLE):
1 21814U 91084B 13136.04258655 -.00000150 00000-0 10000-3 0 922
2 21814 009.1061 047.5961 0016957 349.7876 010.0758 00.96063850 77326
Source: AFSPC
NASA's NSSDC Master Catalog entry for INMARSAT 2-F3